Weather in Tasinskiy Bor

Russia / Vladimir Oblast     55°37′02″N   40°09′23″E
temp.,
°C
wind,
m/s
gust,
m/s
humid.,
%
clouds,
%
prec.,
mm/h
press.,
hPa
HPBL,
m
6 may, thu
thu600:00+8ssw21094100 0.4 1009376
03:00+7ssw289577 0.4 1010198
06:00+8s31192100 0.0 1009291
09:00+13ssw51175100 0.0 1009558
12:00+16s61359100 0.1 10081826
15:00+15s71662100 0.9 10071950
18:00+13ssw81568100 0.3 10071857
21:00+10sw61586100 1.1 10081492
7 may, fri
fri700:00+9wsw4890100 1.6 1009656
03:00+6ssw2796100 1.6 1010267
06:00+6sw3894100 0.0 1012453
09:00+10wsw47625 0.0 10131140
12:00+13wsw57405 0.0 10142096
15:00+15wsw47345 0.0 10142561
18:00+13ssw364544 0.0 10141062
21:00+8s3106977 0.0 1016189
8 may, sat
sat800:00+7sse31268100 0.0 1015295
03:00+8sse41366100 0.0 1014393
06:00+8se51465100 0.0 1012517
09:00+11sse61468100 0.0 1010817
12:00+10se71588100 2.6 1008990
15:00+11sse61493100 4.9 10061160
18:00+11s61295100 2.2 1004982
21:00+9wsw51195100 5.6 1005729
9 may, sun
sun900:00+7wsw51089100 1.1 1007735
03:00+5wsw41087100 1.2 1011983
06:00+5w4986100 0.0 1013985
09:00+7wnw5768100 0.0 10151183
12:00+10w4555100 0.0 10171396
15:00+11nw4553100 0.0 10191604
18:00+10n2461100 0.0 10211090
21:00+6ne228441 0.1 102416
10 may, mon
mon1000:00+4nnw11895 0.0 102510
03:00+3n22935 0.0 102720
06:00+5n25814 0.0 1028132
09:00+11ne34526 0.0 10291011
12:00+14nne233917 0.0 10291621
15:00+16ne22365 0.0 10281693
18:00+15nne23485 0.0 1028211
21:00+8ne22703 0.0 103019